Pilotenausbildung PDF Drucken E-Mail

Im Rahmen einer Ausbildung können folgende Qualifikationen/Berechtigungen erworben werden:

  • Privatpilot (PPL-A)
  • Berufspilot (CPL)
  • Segelflugschein (PPL-C)
  • Hubschrauberschein (PPL-H)
  • Ballonfahrer (PPL-D)
  • Instrumentenflug (IFR)
  • Sportpilot (SPL)
  • Kunstflug


Mehr Informationen erhalten Sie, wenn Sie auf die jeweiligen Firmennamen klicken.

Motorflug R, CH, Sch Air Hamburg

R, CH, Sch, K Canair

R, CH, Sch Flugschule Hamburg

R, CH, Sch, K Hanseair

Sch Aeroclub Hamburg (Motorflug) e.V.

Sch

Vereinigung Hanseatischer Fliegerfreunde e.V.

Hubschrauber R, CH, Sch CityCopter

R, CH, Sch Nordcopters GmbH
Segelflugzeug Sch Luftsportverein Kreis Pinneberg e.V.

Sch Segelflug-Club Uetersen e.V.
Bannerwerbung
Aerial Sign
Ultraleichflug R, CH, Sch

JoyAIR Ultraleicht (Sportpilot SPL)

Ballonfahrt
Balloon Adventure Hamburg
 

Zufallsbild

Aktuelle Termine

Mo Di Mi Do Fr Sa So
1 2 3 4 5 6 7
8 9 10 11 12 13 14
15 16 17 18 19 20 21
22 23 24 25 26 27 28
29 30 31 1 2 3 4

Pilotenwetter

[source: ADDS]
METAR
EDDH 230620Z 17007KT CAVOK 18/10 Q1015 NOSIG =
TAF
TAF EDDH 230500Z 2306/2412 12005KT CAVOK BECMG 2306/2309 18007KT BECMG 2309/2312 24010KT TEMPO 2312/2317 28015G35KT SHRA BKN030CB PROB30 TEMPO 2313/2316 30020G45KT 2500 TSRAGR BKN012CB BECMG 2313/2316 30012KT TEMPO 2318/2321 30015G25KT PROB40 TEMPO 2318/2409 BKN007 =